Temperature
2 3 3 3 3 3 3 3 3 4 4 5 5 5 5 5 5 5 5 5 5 5 5 6 6 6 6 6 6 6 6 6 6 6 6 5 5 5 5 4 4 4 4 4
2 3 3 3 3 3 3 4 3 4 4 4 4 5 4 4 4 4 4 4 4 4 5 5 5 6 6 5 5 5 5 5 5 5 5 5 5 5 4 4 4 4 4 4
1 2 3 2 2 3 3 3 3 4 4 3 3 3 3 4 4 4 4 4 4 4 4 4 5 5 5 5 5 5 5 5 5 5 5 4 4 4 4 4 4 3 3 3
0 1 1 3 2 3 3 3 3 3 4 3 3 4 4 4 4 4 4 4 4 4 4 4 4 4 5 5 4 4 4 4 4 4 4 4 4 4 3 3 3 3 3 3
-0 1 1 3 2 2 2 2 3 3 3 3 3 3 3 4 4 4 4 4 4 4 4 4 4 4 4 4 4 4 4 4 4 4 3 3 3 3 3 3 3 3 3 3
-1 1 1 3 2 2 2 2 2 2 2 2 2 1 2 3 3 3 3 3 3 3 3 3 4 3 3 3 3 3 3 3 3 3 3 3 3 3 3 2 2 2 2 2
-1 -0 1 2 2 2 2 2 2 2 1 1 1 2 2 2 2 2 3 3 3 3 3 3 3 3 3 3 3 3 3 3 3 2 2 2 2 2 2 2 2 2 2 2
-1 -0 1 1 1 1 1 1 1 1 1 1 1 2 2 2 2 2 2 2 2 2 2 3 2 2 2 2 2 2 2 2 2 2 2 2 2 2 2 2 2 1 1 1
-1 0 0 1 1 1 2 1 1 1 1 1 1 1 1 1 1 1 1 1 1 1 2 2 2 2 2 2 1 1 2 2 1 1 1 1 1 1 1 1 1 1 1 0
-1 -1 -1 -0 0 1 1 1 1 1 1 1 0 0 -0 -0 0 0 1 1 1 1 1 1 1 1 1 1 1 1 1 1 1 1 1 1 1 1 1 0 0 0 -0 -0
-2 -2 -1 -1 -0 -0 0 0 0 0 0 0 0 -0 -1 -1 -1 -0 -0 -0 -0 -0 -0 -0 0 0 0 0 0 0 1 1 0 0 0 0 0 0 -0 -0 -0 -1 -1 -1
-2 -2 -2 -2 -1 -1 -1 -1 -1 -0 -1 -1 -0 -1 -1 -1 -1 -1 -1 -1 -1 -1 -1 -1 -1 -1 -1 -0 -0 -0 -0 -0 -0 -0 -0 -0 -0 -0 -1 -1 -1 -1 -1 -2
-2 -2 -2 -2 -1 -1 -1 -1 -1 -1 -1 -1 -1 -1 -2 -2 -2 -2 -2 -2 -1 -1 -1 -1 -1 -1 -1 -1 -1 -1 -1 -1 -1 -1 -1 -1 -1 -1 -1 -1 -1 -2 -2 -2
-2 -2 -3 -3 -3 -2 -2 -2 -2 -2 -2 -2 -2 -2 -3 -3 -3 -2 -2 -2 -2 -2 -2 -2 -2 -2 -2 -2 -2 -1 -1 -1 -1 -2 -2 -2 -1 -1 -2 -2 -2 -2 -2 -2
-3 -3 -3 -3 -3 -3 -3 -3 -3 -3 -3 -3 -3 -3 -3 -3 -3 -3 -3 -3 -3 -2 -3 -2 -2 -2 -2 -2 -2 -2 -2 -2 -2 -2 -2 -2 -2 -2 -2 -2 -3 -3 -2 -2
-4 -4 -4 -4 -4 -4 -4 -4 -4 -4 -4 -4 -4 -4 -4 -4 -4 -4 -4 -3 -3 -3 -3 -3 -3 -3 -3 -3 -3 -3 -3 -3 -3 -3 -3 -3 -3 -3 -3 -3 -3 -3 -3 -3
-5 -5 -5 -5 -5 -5 -5 -5 -4 -5 -5 -5 -5 -5 -4 -4 -4 -4 -4 -4 -4 -4 -4 -4 -3 -3 -3 -3 -3 -3 -3 -3 -3 -3 -3 -3 -3 -3 -3 -4 -4 -4 -4 -4
-5 -5 -5 -5 -5 -5 -5 -5 -5 -5 -5 -5 -5 -5 -5 -4 -5 -4 -4 -4 -4 -4 -4 -4 -4 -4 -4 -4 -4 -4 -4 -4 -4 -4 -4 -4 -4 -4 -4 -4 -4 -4 -4 -4
-6 -5 -5 -5 -5 -5 -5 -6 -5 -5 -5 -5 -5 -5 -5 -5 -5 -5 -5 -5 -4 -4 -4 -4 -4 -4 -4 -4 -4 -4 -4 -4 -4 -4 -4 -4 -4 -4 -5 -5 -5 -5 -5 -5
-6 -6 -6 -6 -6 -6 -6 -6 -6 -6 -6 -6 -5 -5 -5 -5 -5 -5 -5 -5 -5 -5 -5 -5 -5 -5 -5 -5 -5 -5 -5 -5 -5 -5 -5 -5 -5 -5 -5 -5 -5 -5 -5 -5
-7 -7 -6 -6 -6 -6 -6 -6 -6 -6 -6 -6 -6 -6 -6 -6 -6 -6 -6 -5 -5 -5 -5 -5 -5 -5 -5 -5 -5 -5 -5 -5 -5 -5 -5 -5 -5 -5 -5 -5 -5 -5 -5 -6
-7 -7 -7 -7 -7 -7 -7 -7 -7 -6 -6 -6 -6 -6 -6 -6 -6 -6 -6 -6 -6 -6 -6 -6 -6 -6 -6 -6 -6 -6 -6 -6 -6 -6 -6 -6 -6 -5 -5 -6 -5 -6 -6 -6
-8 -8 -8 -8 -7 -7 -7 -7 -7 -7 -7 -7 -6 -6 -6 -6 -6 -6 -6 -6 -6 -6 -6 -6 -6 -6 -6 -6 -6 -6 -6 -6 -6 -6 -6 -6 -6 -6 -6 -6 -6 -6 -6 -6
-8 -8 -8 -8 -8 -8 -8 -7 -7 -7 -7 -7 -7 -7 -7 -7 -7 -7 -7 -7 -7 -7 -7 -7 -7 -7 -7 -6 -6 -6 -6 -6 -6 -6 -6 -6 -6 -6 -6 -6 -6 -6 -6 -6
-8 -8 -8 -8 -8 -8 -8 -8 -8 -8 -8 -7 -7 -7 -7 -7 -7 -7 -7 -7 -7 -7 -7 -7 -7 -7 -7 -7 -7 -7 -7 -7 -7 -7 -7 -7 -7 -7 -6 -6 -6 -7 -7 -7
-9 -9 -9 -8 -8 -8 -8 -8 -8 -8 -8 -8 -8 -8 -8 -8 -8 -7 -7 -7 -7 -7 -7 -7 -7 -7 -7 -7 -7 -7 -7 -7 -7 -7 -7 -7 -7 -7 -7 -7 -7 -7 -7 -7
-9 -9 -9 -9 -9 -9 -9 -9 -9 -9 -9 -8 -8 -8 -8 -8 -8 -8 -8 -8 -8 -8 -8 -7 -7 -7 -7 -7 -7 -7 -7 -7 -7 -7 -7 -7 -7 -7 -7 -7 -7 -7 -7 -7
Wind_Speed
3 4 3 4 6 5 6 7 7 7 6 6 4 3 1 1 2 3 2 2 2 1 2 1 0 1 1 1 2 2 3 3 3 2 2 2 1 2 1 1 2 3 3 4
2 3 2 3 5 6 6 5 6 5 6 5 2 0 1 1 2 2 1 0 0 1 1 1 0 1 1 1 1 2 3 2 2 2 1 1 1 1 1 1 2 2 2 3
1 2 1 4 5 6 4 4 5 7 6 2 1 2 3 2 2 2 2 1 1 1 1 1 1 1 1 1 1 2 2 1 1 1 1 1 1 0 1 1 1 2 3 3
1 2 3 5 1 3 4 4 4 4 3 4 4 3 1 2 3 2 1 1 1 1 1 1 1 0 1 2 2 2 2 1 1 1 1 0 1 0 1 1 2 2 3 4
2 2 5 4 2 1 4 4 3 4 3 1 1 2 1 1 1 1 1 1 1 1 1 1 1 1 2 2 2 3 2 1 1 1 1 1 0 1 1 1 2 2 3 3
2 2 4 4 4 2 2 3 3 2 3 3 2 1 4 2 1 1 1 1 1 1 1 1 1 1 3 2 2 2 1 1 1 1 1 0 0 1 1 1 2 2 3 3
3 3 6 4 4 2 3 5 3 1 2 3 3 4 3 1 1 1 2 2 2 2 1 1 1 2 3 2 1 1 1 2 2 2 1 1 1 1 1 1 2 2 3 4
3 3 6 2 2 2 3 3 1 1 1 1 0 1 1 1 2 2 2 3 3 3 2 2 2 3 3 2 1 1 2 3 2 2 2 2 2 2 1 1 2 2 3 4
5 5 3 1 1 2 1 1 1 0 0 2 1 1 1 2 2 2 2 2 3 3 3 3 3 3 3 1 1 2 3 3 2 2 2 2 1 2 2 1 1 2 2 3
2 3 3 2 2 3 3 2 1 1 1 1 1 2 2 2 2 2 2 3 3 3 3 3 3 3 2 2 2 3 3 2 2 2 2 2 2 1 1 1 2 2 2 3
3 3 3 3 3 3 3 3 3 3 2 2 3 2 2 2 2 2 2 3 3 3 2 2 3 3 3 2 2 3 2 2 2 2 2 2 2 2 2 1 1 2 2 2
4 3 3 4 4 2 2 2 2 2 2 2 2 3 3 2 2 2 3 3 3 3 3 3 3 4 4 3 2 2 2 2 2 2 2 1 2 3 5 4 4 3 3 3
3 3 2 2 3 2 2 2 2 2 2 2 2 3 3 3 3 3 3 3 3 3 3 3 3 4 4 4 3 2 2 1 1 2 2 2 2 2 3 4 6 6 5 6
2 2 1 2 3 3 3 3 4 4 3 3 3 3 3 3 3 3 3 3 3 3 3 3 3 3 4 3 3 3 2 2 2 1 1 1 1 1 1 2 4 4 6 7
5 3 1 2 2 3 3 4 4 4 4 4 3 3 3 3 2 2 2 2 3 3 3 3 3 3 3 3 3 3 2 2 2 1 1 2 2 2 2 2 2 3 4 5
4 3 2 3 3 3 3 3 3 2 3 3 3 3 2 2 2 2 2 3 3 3 2 2 3 3 3 3 3 3 2 3 3 2 2 2 2 2 2 2 2 3 3 4
1 2 2 2 2 2 2 2 1 1 2 2 2 2 2 3 3 3 3 3 2 2 2 2 2 3 3 3 2 2 2 2 4 3 2 2 2 2 2 2 2 3 3 4
1 2 2 1 1 1 2 2 1 1 1 1 2 2 3 3 2 2 2 2 3 4 3 2 2 3 3 3 2 1 1 1 2 2 2 2 2 2 2 2 3 3 3 4
3 3 2 2 1 0 0 1 1 1 1 2 2 2 2 1 1 1 1 2 3 3 3 2 4 3 3 3 3 1 1 2 2 2 2 3 3 2 2 2 3 3 4 4
4 4 3 3 2 2 1 1 1 2 1 2 2 2 2 2 1 1 2 2 2 1 2 2 3 2 3 3 3 2 2 2 2 2 2 2 2 2 3 3 3 3 4 4
4 4 4 3 2 2 2 1 2 1 1 1 2 1 1 1 1 1 2 2 3 2 2 3 2 2 2 2 3 2 2 1 1 1 2 2 2 3 3 3 4 4 4 4
3 3 3 3 2 2 2 1 1 1 1 1 2 1 1 1 2 2 1 1 2 3 3 2 1 2 3 3 2 2 1 1 1 1 2 2 2 3 3 4 4 4 4 4
3 3 3 2 2 1 2 2 1 1 1 1 1 0 0 0 0 0 1 2 2 3 3 1 2 3 4 3 2 1 1 1 1 2 2 2 2 3 3 4 4 4 4 4
3 2 2 2 1 1 1 2 2 1 1 1 1 0 0 0 1 1 1 2 4 4 2 2 4 4 4 2 1 1 1 1 1 2 2 2 2 3 3 4 4 4 4 5
2 2 2 1 1 1 0 1 2 2 2 1 2 2 1 1 1 1 1 2 3 3 2 3 4 4 3 1 1 1 1 1 2 2 2 2 3 3 4 4 4 4 4 4
2 2 1 1 1 1 0 0 0 1 1 1 2 2 2 1 1 1 1 1 2 3 3 2 2 3 2 1 1 1 2 2 3 2 2 3 3 3 4 4 5 4 4 4
2 1 1 1 1 1 0 0 0 0 1 0 1 1 1 1 1 1 1 1 2 2 2 2 2 2 1 1 1 2 2 2 2 2 3 3 3 3 4 4 4 4 4 4
Wind_Direction
243 251 232 248 234 216 208 201 203 225 237 261 260 234 209 142 106 85 76 72 71 45 17 13 59 141 150 153 154 150 151 167 193 207 201 193 208 217 218 236 265 271 279 285
294 269 244 262 244 223 224 214 222 239 263 277 275 261 173 161 135 129 153 221 59 45 26 359 312 200 167 157 155 144 158 185 189 178 170 170 190 196 231 273 279 289 289 288
260 303 22 264 238 214 212 214 193 224 240 259 258 197 198 187 168 181 199 217 216 247 261 272 262 208 183 176 137 130 140 159 158 156 154 169 167 142 258 273 283 293 291 292
161 68 228 252 261 198 199 231 210 223 228 215 219 214 204 170 168 186 204 221 261 265 281 303 289 155 130 115 117 117 108 100 104 114 124 133 126 186 285 293 290 292 298 299
154 208 268 287 300 206 195 250 242 231 245 224 172 60 340 339 132 188 236 248 261 278 278 318 4 114 113 100 103 107 102 90 82 105 113 98 174 273 297 319 318 314 312 307
154 184 233 263 300 289 130 262 282 226 226 207 128 197 252 272 40 40 12 4 5 346 356 34 13 96 115 114 108 113 123 122 91 92 99 106 265 299 342 335 312 320 325 323
188 219 258 281 323 58 149 252 297 216 200 187 209 228 234 188 50 61 44 32 33 33 33 16 43 102 112 107 114 129 91 75 63 60 68 58 23 22 10 356 347 336 330 327
177 210 252 313 72 158 241 302 321 189 169 147 68 66 103 105 85 61 46 28 33 46 28 17 59 100 98 84 55 66 69 59 44 36 34 39 51 21 19 13 353 339 336 330
202 220 278 312 218 285 305 308 303 260 61 129 107 128 100 93 86 73 68 40 36 47 36 23 37 86 96 45 62 73 70 55 38 32 36 44 54 30 10 11 350 331 332 328
259 274 305 324 339 343 349 346 351 41 111 127 147 143 119 109 95 81 75 64 56 54 48 28 27 51 69 51 70 83 76 55 40 41 28 22 27 31 16 344 329 322 326 323
253 282 331 332 333 334 359 24 37 35 45 110 129 130 126 114 96 86 71 58 60 64 52 29 33 42 37 41 67 74 67 53 39 35 32 21 21 23 356 309 289 304 302 301
247 261 258 277 304 329 14 11 26 52 36 39 100 118 108 102 85 83 71 59 58 56 47 32 38 33 23 26 57 78 63 45 32 25 20 22 25 10 13 10 360 351 338 324
277 305 273 293 333 1 23 12 18 57 93 72 54 90 99 94 77 68 59 52 52 47 40 37 41 30 14 16 35 62 71 44 30 28 23 14 10 8 355 359 9 8 360 352
357 22 9 346 344 3 41 47 54 59 59 68 75 79 83 77 72 67 55 44 46 47 41 41 42 25 13 23 35 43 44 38 42 32 19 6 354 349 349 346 345 348 351 356
353 359 319 346 11 30 49 61 64 57 54 51 62 75 80 79 69 54 45 40 46 46 41 42 36 13 11 23 35 38 40 37 43 35 22 12 1 2 3 356 347 340 341 348
334 9 36 44 38 32 41 55 67 50 45 49 55 55 67 79 69 50 41 47 51 38 26 28 16 1 8 21 28 31 33 33 31 35 30 21 10 6 3 358 351 347 344 338
3 351 2 5 359 357 1 10 46 67 56 49 41 48 69 74 65 47 38 30 32 29 19 21 2 353 4 18 29 31 27 26 25 28 24 14 5 359 354 353 349 341 332 332
286 252 253 256 252 291 336 3 32 57 64 52 51 62 74 82 76 38 15 26 42 37 21 9 1 2 15 20 27 40 40 25 16 18 14 14 8 359 349 341 334 328 325 332
6 15 16 6 346 294 320 354 17 45 54 64 69 65 70 69 60 30 29 46 44 22 356 357 10 21 22 17 22 43 43 31 28 22 16 7 3 350 344 335 330 329 329 332
12 14 16 13 19 33 35 34 57 60 54 70 74 69 56 38 28 36 51 34 353 308 308 342 4 13 6 7 16 34 40 36 28 15 9 4 348 338 336 335 332 329 330 328
1 3 4 4 12 22 36 54 77 70 45 64 88 88 60 22 25 45 59 17 342 351 351 2 14 6 354 2 13 30 30 18 13 5 351 342 338 337 337 335 333 332 329 327
349 350 350 356 9 16 14 33 67 80 64 60 67 74 77 46 23 19 9 311 309 349 4 4 358 348 351 11 35 31 16 10 0 349 342 338 336 334 332 330 329 328 327 327
330 332 340 344 343 356 11 20 40 74 81 78 92 128 140 281 313 356 331 327 328 349 360 347 341 348 4 29 31 18 6 2 350 342 335 331 328 324 323 324 324 325 325 326
327 331 333 336 6 66 39 8 22 42 48 27 15 6 142 54 347 327 274 310 340 348 351 344 354 357 10 21 12 0 350 340 331 326 326 324 322 319 317 316 318 319 319 322
334 337 346 4 22 24 30 36 46 43 42 32 9 355 343 310 265 304 322 326 343 353 349 348 354 357 1 347 341 332 325 319 317 322 324 321 317 314 313 313 315 316 318 318
337 333 322 308 289 268 218 109 60 15 25 14 359 0 5 11 20 345 343 346 341 348 346 334 333 342 342 336 333 326 321 321 324 325 317 312 309 308 308 310 311 313 314 314
343 346 355 360 357 359 86 130 296 310 305 281 319 335 348 355 358 355 349 343 337 335 327 324 324 322 322 321 318 312 309 308 307 305 306 304 303 301 304 307 308 312 315 315
Height
1443 1441 1443 1442 1442 1442 1444 1445 1447 1442 1440 1436 1435 1435 1435 1435 1435 1435 1435 1436 1436 1437 1437 1438 1439 1440 1441 1443 1445 1446 1447 1448 1449 1450 1451 1452 1452 1452 1452 1452 1451 1451 1449 1448
1444 1440 1440 1440 1439 1439 1439 1439 1440 1439 1438 1434 1434 1434 1435 1434 1434 1435 1436 1436 1436 1436 1436 1437 1438 1439 1440 1441 1442 1443 1444 1445 1446 1447 1448 1448 1449 1449 1449 1448 1448 1447 1445 1444
1447 1442 1440 1442 1437 1436 1437 1435 1436 1436 1435 1434 1434 1434 1434 1434 1434 1434 1435 1435 1435 1435 1435 1436 1437 1438 1438 1439 1440 1441 1442 1443 1443 1444 1445 1445 1446 1445 1445 1445 1444 1443 1442 1440
1450 1447 1449 1437 1432 1431 1432 1432 1432 1431 1430 1431 1432 1432 1433 1433 1433 1433 1434 1434 1434 1434 1434 1435 1436 1436 1437 1438 1438 1439 1439 1440 1441 1441 1442 1442 1442 1442 1442 1441 1440 1439 1438 1436
1451 1449 1443 1434 1432 1431 1432 1431 1429 1429 1429 1429 1430 1430 1431 1432 1432 1433 1433 1433 1433 1433 1433 1433 1434 1434 1435 1435 1436 1436 1437 1438 1438 1438 1439 1439 1439 1439 1439 1438 1437 1436 1434 1433
1451 1448 1443 1433 1429 1427 1429 1431 1427 1427 1427 1428 1428 1432 1430 1429 1430 1431 1431 1431 1431 1431 1431 1431 1431 1432 1432 1433 1433 1434 1435 1435 1436 1436 1436 1436 1437 1436 1436 1435 1434 1433 1431 1429
1450 1448 1439 1431 1428 1427 1434 1431 1425 1424 1425 1425 1426 1427 1427 1427 1427 1428 1428 1429 1429 1429 1429 1429 1429 1430 1430 1430 1431 1432 1432 1433 1434 1434 1434 1434 1434 1434 1433 1432 1431 1430 1428 1426
1447 1446 1440 1430 1429 1431 1430 1426 1424 1423 1423 1424 1424 1424 1424 1425 1425 1425 1425 1426 1426 1426 1427 1427 1427 1428 1428 1428 1429 1430 1430 1431 1431 1432 1432 1432 1431 1431 1430 1429 1428 1426 1425 1423
1439 1437 1431 1429 1428 1427 1426 1425 1423 1423 1422 1423 1423 1423 1423 1423 1423 1424 1424 1425 1425 1425 1425 1425 1426 1426 1426 1427 1428 1428 1428 1429 1429 1430 1430 1430 1429 1428 1427 1426 1425 1423 1422 1420
1436 1432 1430 1429 1427 1426 1425 1424 1423 1422 1422 1422 1421 1422 1422 1422 1423 1423 1423 1424 1424 1424 1424 1424 1425 1425 1425 1426 1426 1426 1427 1427 1427 1427 1427 1427 1427 1426 1425 1424 1423 1421 1419 1417
1434 1431 1429 1428 1427 1426 1424 1423 1422 1422 1422 1421 1421 1421 1421 1421 1422 1422 1423 1423 1423 1423 1423 1423 1424 1424 1424 1424 1425 1424 1425 1425 1425 1425 1425 1425 1425 1424 1423 1422 1421 1419 1417 1416
1432 1430 1430 1428 1426 1425 1424 1422 1422 1421 1421 1421 1421 1420 1421 1421 1421 1422 1422 1422 1422 1423 1423 1423 1423 1423 1423 1423 1423 1423 1423 1423 1423 1424 1423 1423 1423 1422 1421 1421 1419 1418 1416 1414
1430 1428 1428 1427 1426 1425 1423 1422 1422 1421 1420 1420 1421 1421 1420 1420 1421 1421 1421 1422 1422 1422 1422 1422 1422 1422 1422 1422 1422 1422 1422 1422 1422 1422 1422 1421 1421 1420 1419 1418 1417 1416 1414 1412
1428 1427 1426 1426 1425 1424 1423 1422 1421 1421 1421 1421 1420 1421 1420 1420 1420 1421 1421 1421 1421 1421 1421 1421 1421 1421 1421 1421 1421 1421 1420 1420 1420 1420 1420 1420 1419 1419 1418 1416 1414 1413 1412 1410
1427 1427 1426 1425 1424 1423 1422 1422 1421 1421 1421 1421 1421 1420 1420 1420 1420 1420 1421 1421 1421 1421 1421 1421 1421 1421 1421 1420 1420 1420 1419 1419 1419 1419 1419 1419 1418 1417 1416 1415 1413 1412 1410 1409
1427 1426 1425 1424 1423 1423 1422 1421 1420 1420 1420 1420 1420 1420 1420 1420 1420 1420 1420 1420 1420 1420 1420 1420 1420 1420 1420 1420 1419 1419 1419 1419 1419 1419 1418 1417 1417 1416 1415 1413 1412 1410 1409 1407
1426 1425 1424 1423 1423 1422 1422 1421 1420 1420 1420 1420 1420 1420 1420 1420 1420 1420 1420 1420 1420 1420 1420 1420 1420 1420 1420 1419 1419 1419 1419 1419 1418 1418 1417 1416 1415 1415 1413 1412 1410 1409 1407 1406
1425 1424 1424 1423 1422 1421 1421 1421 1420 1420 1420 1420 1420 1420 1419 1419 1419 1419 1420 1420 1420 1420 1420 1420 1420 1419 1419 1419 1419 1418 1418 1418 1417 1417 1416 1415 1414 1413 1412 1411 1409 1407 1406 1405
1424 1423 1423 1422 1421 1421 1420 1420 1420 1419 1419 1419 1419 1419 1419 1419 1419 1420 1420 1419 1419 1418 1419 1419 1419 1419 1418 1418 1418 1418 1417 1417 1416 1416 1415 1414 1413 1412 1411 1409 1407 1406 1404 1403
1423 1423 1422 1421 1421 1420 1419 1419 1419 1419 1419 1419 1419 1419 1419 1419 1419 1419 1419 1419 1418 1418 1418 1418 1418 1418 1418 1417 1417 1417 1416 1416 1415 1414 1414 1413 1412 1410 1409 1407 1406 1404 1403 1401
1423 1422 1421 1420 1419 1419 1419 1418 1418 1418 1418 1418 1418 1418 1418 1419 1419 1419 1418 1418 1418 1418 1418 1418 1418 1417 1417 1417 1416 1416 1415 1415 1414 1413 1412 1411 1410 1409 1407 1406 1404 1403 1401 1400
1422 1421 1420 1419 1419 1418 1418 1418 1418 1417 1418 1418 1418 1418 1418 1418 1418 1418 1418 1418 1417 1417 1417 1417 1417 1416 1416 1416 1415 1414 1414 1413 1413 1412 1411 1410 1408 1407 1405 1404 1402 1401 1400 1398
1421 1420 1419 1419 1418 1417 1417 1417 1417 1417 1417 1417 1418 1418 1418 1418 1418 1417 1417 1417 1417 1416 1416 1416 1416 1415 1415 1414 1414 1413 1412 1412 1411 1410 1409 1408 1407 1405 1404 1402 1401 1400 1398 1397
1420 1419 1419 1418 1417 1417 1416 1416 1417 1417 1417 1417 1417 1417 1417 1417 1417 1417 1416 1416 1416 1415 1415 1414 1414 1414 1414 1413 1412 1412 1411 1410 1409 1408 1407 1406 1405 1404 1402 1401 1399 1398 1397 1395
1419 1418 1418 1417 1416 1416 1416 1416 1416 1416 1416 1416 1416 1416 1416 1416 1416 1415 1415 1415 1414 1414 1413 1413 1413 1413 1412 1411 1411 1410 1409 1408 1407 1406 1405 1404 1403 1402 1401 1399 1398 1396 1395 1393
1418 1418 1417 1416 1416 1415 1415 1415 1415 1415 1415 1415 1415 1415 1415 1415 1414 1414 1413 1413 1413 1412 1412 1411 1411 1411 1410 1409 1409 1408 1407 1406 1405 1405 1404 1402 1401 1400 1399 1397 1396 1395 1393 1392
1417 1417 1416 1415 1415 1415 1414 1414 1414 1414 1414 1414 1413 1413 1413 1413 1413 1412 1412 1411 1411 1411 1410 1410 1409 1409 1408 1407 1407 1406 1405 1404 1403 1402 1402 1401 1399 1398 1397 1396 1394 1393 1392 1390